Radioactive Concentration measured by Seawater Radiation Monitor near Fukushima Daiichi Nuclear Power Station
Date,Time,Cs137(Bq/L),Cs134(Bq/L),Total β(Bq/L)
2018/07/06,00:00,0.38,ND,ND
2018/07/06,00:10,0.39,ND,ND
2018/07/06,00:20,0.39,ND,ND
2018/07/06,00:30,0.37,ND,ND
2018/07/06,00:40,0.37,ND,ND
2018/07/06,00:50,0.37,ND,ND
2018/07/06,01:00,0.39,ND,ND
2018/07/06,01:10,0.38,ND,ND
2018/07/06,01:20,0.41,ND,ND
2018/07/06,01:30,0.41,ND,ND
2018/07/06,01:40,0.39,ND,ND
2018/07/06,01:50,0.39,ND,ND
2018/07/06,02:00,0.37,ND,ND
2018/07/06,02:10,0.37,ND,ND
2018/07/06,02:20,0.36,ND,ND
2018/07/06,02:30,0.35,ND,ND
2018/07/06,02:40,0.36,ND,ND
2018/07/06,02:50,0.35,ND,ND
2018/07/06,03:00,0.35,ND,ND
2018/07/06,03:10,0.36,ND,ND
2018/07/06,03:20,0.35,ND,ND
2018/07/06,03:30,0.35,ND,ND
2018/07/06,03:40,0.27,ND,ND
2018/07/06,03:50,0.29,ND,ND
2018/07/06,04:00,0.28,ND,ND
2018/07/06,04:10,0.27,ND,ND
2018/07/06,04:20,0.26,ND,ND
2018/07/06,04:30,0.27,ND,ND
2018/07/06,04:40,0.34,ND,ND
2018/07/06,04:50,0.34,ND,ND
2018/07/06,05:00,0.37,ND,ND
2018/07/06,05:10,0.38,ND,ND
2018/07/06,05:20,0.35,ND,ND
2018/07/06,05:30,0.41,ND,ND
2018/07/06,05:40,0.42,ND,ND
2018/07/06,05:50,0.40,ND,ND
2018/07/06,06:00,0.38,ND,ND
2018/07/06,06:10,0.38,ND,ND
2018/07/06,06:20,0.37,ND,ND
2018/07/06,06:30,0.35,ND,ND
2018/07/06,06:40,0.34,ND,ND
2018/07/06,06:50,0.35,ND,ND
2018/07/06,07:00,0.36,ND,ND
2018/07/06,07:10,0.36,ND,ND
2018/07/06,07:20,0.36,ND,ND
2018/07/06,07:30,0.36,ND,ND
2018/07/06,07:40,0.34,ND,ND
2018/07/06,07:50,0.35,ND,ND
2018/07/06,08:00,0.34,ND,ND
2018/07/06,08:10,0.33,ND,ND
2018/07/06,08:20,0.33,ND,ND
2018/07/06,08:30,0.32,ND,ND
2018/07/06,08:40,0.33,ND,ND
2018/07/06,08:50,0.33,ND,ND
2018/07/06,09:00,0.33,ND,ND
2018/07/06,09:10,0.34,ND,ND
2018/07/06,09:20,0.33,ND,ND
2018/07/06,09:30,0.34,ND,ND
2018/07/06,09:40,0.37,ND,ND
2018/07/06,09:50,0.38,ND,ND
2018/07/06,10:00,0.38,ND,ND
2018/07/06,10:10,0.38,ND,ND
2018/07/06,10:20,0.35,ND,ND
2018/07/06,10:30,0.39,ND,ND
2018/07/06,10:40,0.32,ND,ND
2018/07/06,10:50,0.36,ND,ND
2018/07/06,11:00,0.37,ND,ND
2018/07/06,11:10,0.38,ND,ND
2018/07/06,11:20,0.36,ND,ND
2018/07/06,11:30,0.39,ND,ND
2018/07/06,11:40,0.40,ND,ND
2018/07/06,11:50,0.39,ND,ND
2018/07/06,12:00,0.39,ND,ND
2018/07/06,12:10,0.40,ND,ND
2018/07/06,12:20,0.43,ND,ND
2018/07/06,12:30,0.44,ND,ND
2018/07/06,12:40,0.45,ND,ND
2018/07/06,12:50,0.48,ND,ND
2018/07/06,13:00,0.51,ND,ND
2018/07/06,13:10,0.51,ND,ND
2018/07/06,13:20,0.50,ND,ND
2018/07/06,13:30,0.49,ND,ND
2018/07/06,13:40,0.50,ND,9.0
2018/07/06,13:50,0.51,ND,ND
2018/07/06,14:00,0.52,ND,ND
2018/07/06,14:10,0.54,ND,ND
2018/07/06,14:20,0.59,ND,ND
2018/07/06,14:30,0.60,ND,ND
2018/07/06,14:40,0.61,ND,ND
2018/07/06,14:50,0.62,ND,ND
2018/07/06,15:00,0.64,ND,ND
2018/07/06,15:10,0.63,ND,ND
2018/07/06,15:20,0.62,ND,ND
2018/07/06,15:30,0.61,ND,ND
2018/07/06,15:40,0.60,ND,ND
2018/07/06,15:50,0.60,ND,ND
2018/07/06,16:00,0.60,ND,ND
2018/07/06,16:10,0.60,ND,ND
2018/07/06,16:20,0.59,ND,ND
2018/07/06,16:30,0.61,ND,ND
2018/07/06,16:40,0.59,ND,ND
2018/07/06,16:50,0.57,ND,ND
2018/07/06,17:00,0.58,ND,ND
2018/07/06,17:10,0.60,ND,ND
2018/07/06,17:20,0.60,ND,ND
2018/07/06,17:30,0.59,ND,ND
2018/07/06,17:40,0.60,ND,ND
2018/07/06,17:50,0.60,ND,ND
2018/07/06,18:00,0.57,ND,ND
2018/07/06,18:10,0.56,ND,ND
2018/07/06,18:20,0.53,ND,ND
2018/07/06,18:30,0.58,ND,ND
2018/07/06,18:40,0.57,ND,ND
2018/07/06,18:50,0.56,ND,ND
2018/07/06,19:00,0.59,ND,ND
2018/07/06,19:10,0.57,ND,ND
2018/07/06,19:20,0.53,ND,ND
2018/07/06,19:30,0.55,ND,ND
2018/07/06,19:40,0.50,ND,ND
2018/07/06,19:50,0.51,ND,ND
2018/07/06,20:00,0.49,ND,ND
2018/07/06,20:10,0.49,ND,ND
2018/07/06,20:20,0.52,ND,ND
2018/07/06,20:30,0.55,ND,ND
2018/07/06,20:40,0.56,ND,ND
2018/07/06,20:50,0.55,ND,ND
2018/07/06,21:00,0.55,ND,ND
2018/07/06,21:10,0.51,ND,ND
2018/07/06,21:20,0.49,ND,ND
2018/07/06,21:30,0.47,ND,ND
2018/07/06,21:40,0.46,ND,ND
2018/07/06,21:50,0.44,ND,ND
2018/07/06,22:00,0.48,ND,ND
2018/07/06,22:10,0.47,ND,ND
2018/07/06,22:20,0.47,ND,ND
2018/07/06,22:30,0.45,ND,ND
2018/07/06,22:40,0.45,ND,ND
2018/07/06,22:50,0.45,ND,ND
2018/07/06,23:00,0.46,ND,ND
2018/07/06,23:10,0.46,ND,ND
2018/07/06,23:20,0.47,ND,ND
2018/07/06,23:30,0.48,ND,ND
2018/07/06,23:40,0.49,ND,ND
2018/07/06,23:50,0.48,ND,ND
